Вернуться в каталог

CZ-4 DEB

АктивенSSO
NORAD 27482·DEBRIS·🇨🇳 China

Запущен Sep 3, 1990 с Taiyuan Satellite Launch Center

Loading…

Ближайшие Пролёты (ближайшие 24 часа)

TLE

СвежийSource: Space-Track

Эпоха: Sep 14, 2026, 10:45 UTC

1 27482U 90081CU  26257.44824843  .00000256  00000-0  16301-3 0  9997
2 27482  98.8921 239.6952 0010375  55.5217  96.8081 14.12306068317586

Отслеживайте CZ-4 DEB в реальном времени с AllMySat

Download on the App Store